Location: Leeds
(37.2390°N, 113.3580°W)
Time: 09:09:22
(UTC-07:00)

ISS - All Passes

Search period start: 12 February 2016 00:00
Search period end: 22 February 2016 00:00
Orbit: 399 x 407 km, 51.6° (Epoch: 12 February)

Date Brightness Start Highest point End Pass type
(mag) Time Alt. Az. Time Alt. Az. Time Alt. Az.
12 Feb - 14:47:25 10° SW 14:50:38 67° SE 14:53:51 10° NE daylight
12 Feb - 16:25:12 10° WNW 16:27:22 16° NNW 16:29:32 10° NNE daylight
12 Feb - 21:17:01 10° NNW 21:20:02 34° NE 21:23:01 10° ESE night (unlit)
12 Feb - 22:53:49 10° W 22:56:19 21° SW 22:58:48 10° S night (unlit)
13 Feb - 13:55:08 10° SSW 13:58:02 30° SE 14:00:56 10° ENE daylight
13 Feb - 15:31:42 10° W 15:34:29 25° NNW 15:37:16 10° NNE daylight
13 Feb - 20:24:39 10° NNW 20:27:10 20° NNE 20:29:41 10° E visible
13 Feb - 22:00:39 10° WNW 22:03:45 43° SW 22:06:50 10° SSE night (unlit)
14 Feb - 13:03:34 10° SSE 13:05:30 15° SE 13:07:27 10° E daylight
14 Feb - 14:38:31 10° WSW 14:41:40 45° NW 14:44:48 10° NE daylight
14 Feb - 16:18:05 10° NNW 16:18:45 10° NNW 16:19:26 10° N daylight
14 Feb - 19:32:28 10° N 19:34:14 14° NNE 19:35:59 10° NE visible
14 Feb - 21:07:51 10° NW 21:11:06 84° NE 21:14:20 10° SE visible
15 Feb - 13:45:40 10° SW 13:48:55 85° SE 13:52:11 10° NE daylight
15 Feb - 15:23:48 10° WNW 15:25:45 15° NNW 15:27:41 10° NNE daylight
15 Feb - 20:15:15 10° NW 20:18:21 40° NE 20:21:25 10° ESE visible
15 Feb - 21:52:22 10° W 21:54:32 17° SW 21:56:42 10° S night (unlit)
16 Feb - 12:53:13 10° SSW 12:56:15 38° SE 12:59:19 10° ENE daylight
16 Feb - 14:30:10 10° W 14:32:48 22° NNW 14:35:25 10° NNE daylight
16 Feb - 19:22:47 10° NNW 19:25:29 23° NNE 19:28:10 10° E visible
16 Feb - 20:58:59 10° WNW 21:01:58 34° SW 21:04:56 10° SSE visible
17 Feb - 12:01:19 10° S 12:03:40 18° SE 12:06:01 10° E daylight
17 Feb - 13:36:50 10° WSW 13:39:54 37° NW 13:42:58 10° NE daylight
17 Feb - 18:30:30 10° NNW 18:32:31 15° NNE 18:34:33 10° ENE daylight
17 Feb - 20:06:04 10° NW 20:09:18 77° SW 20:12:31 10° SE visible
18 Feb - 12:43:51 10° SW 12:47:06 77° NW 12:50:21 10° NE daylight
18 Feb - 14:22:20 10° NW 14:24:00 13° NNW 14:25:40 10° N daylight
18 Feb - 17:38:34 10° N 17:39:28 11° NNE 17:40:22 10° NE daylight
18 Feb - 19:13:22 10° NW 19:16:32 49° NE 19:19:41 10° ESE visible
18 Feb - 20:50:57 10° W 20:52:39 14° SW 20:54:20 10° SSW visible
19 Feb - 11:51:13 10° SSW 11:54:22 48° SE 11:57:32 10° ENE daylight
19 Feb - 13:28:31 10° WNW 13:30:59 19° NNW 13:33:26 10° NNE daylight
19 Feb - 18:20:50 10° NNW 18:23:40 27° NNE 18:26:29 10° E daylight
19 Feb - 19:57:15 10° WNW 20:00:04 27° SW 20:02:52 10° SSE visible
20 Feb - 10:59:05 10° S 11:01:43 23° SE 11:04:21 10° ENE daylight
20 Feb - 12:35:04 10° W 12:38:02 32° NNW 12:41:01 10° NNE daylight
20 Feb - 17:28:26 10° NNW 17:30:41 17° NNE 17:32:56 10° ENE daylight
20 Feb - 19:04:11 10° NW 19:07:23 60° SW 19:10:34 10° SE visible
21 Feb - 10:08:05 10° SE 10:09:08 11° SE 10:10:10 10° ESE daylight
21 Feb - 11:41:56 10° WSW 11:45:10 61° NW 11:48:25 10° NE daylight
21 Feb - 13:20:48 10° NW 13:22:09 12° NNW 13:23:30 10° N daylight
21 Feb - 16:36:17 10° N 16:37:37 12° NNE 16:38:57 10° NE daylight
21 Feb - 18:11:23 10° NW 18:14:36 62° NE 18:17:48 10° ESE daylight
21 Feb - 19:49:44 10° WSW 19:50:37 11° SW 19:51:32 10° SW visible
